DKJ345 LEPA-EGCC

Flight info

Callsign DKJ345
Flight time 2h 14m
Altitude 38000
Route DRAGO DCT PAPOS DCT UMURE N863 GIROM DCT AGN DCT SECHE DCT UVELI DCT CNA DCT TUPAR UN861 ANG DCT AKIKI UN867 AVANT UM184 HEMEL T420 ELVOS
Aircraft A20N/M-SDE2E3FGHIRWXY/LB1

Departure

Time 2026-05-06 18:27
Airport Palma de Mallorca Airport (LEPA)

Arrival

Time 2026-05-06 20:42
Airport Manchester Airport (EGCC)
Time Latitude Longitude Altitude Speed Heading
2026-05-06 17:56 39.54873 2.73541 30 ft 0 kts 47°
2026-05-06 18:17 39.54868 2.73534 30 ft 4 kts 47°
2026-05-06 18:17 39.54851 2.73511 30 ft 2 kts 47°
2026-05-06 18:17 39.54832 2.73492 30 ft 4 kts
2026-05-06 18:18 39.54806 2.73497 30 ft 4 kts 329°
2026-05-06 18:18 39.54792 2.73510 30 ft 4 kts 321°
2026-05-06 18:18 39.54771 2.73530 30 ft 3 kts 328°
2026-05-06 18:18 39.54755 2.73543 30 ft 0 kts 329°
2026-05-06 18:22 39.54760 2.73538 30 ft 2 kts 322°
2026-05-06 18:23 39.54768 2.73511 30 ft 4 kts 280°
2026-05-06 18:23 39.54750 2.73473 30 ft 6 kts 198°
2026-05-06 18:23 39.54705 2.73493 30 ft 9 kts 153°
2026-05-06 18:23 39.54640 2.73547 30 ft 12 kts 137°
2026-05-06 18:24 39.54598 2.73641 30 ft 13 kts 149°
2026-05-06 18:24 39.54543 2.73648 30 ft 4 kts 246°
2026-05-06 18:24 39.54527 2.73585 30 ft 11 kts 253°
2026-05-06 18:24 39.54485 2.73479 30 ft 15 kts 230°
2026-05-06 18:25 39.54427 2.73356 30 ft 17 kts 240°
2026-05-06 18:25 39.54363 2.73215 30 ft 19 kts 243°
2026-05-06 18:25 39.54294 2.73075 30 ft 19 kts 237°
2026-05-06 18:25 39.54226 2.72942 30 ft 15 kts 215°
2026-05-06 18:26 39.54156 2.72996 30 ft 14 kts 101°
2026-05-06 18:26 39.54150 2.73129 30 ft 16 kts 92°
2026-05-06 18:26 39.54173 2.73271 30 ft 17 kts 58°
2026-05-06 18:26 39.54252 2.73438 30 ft 39 kts 59°
2026-05-06 18:27 39.54536 2.74039 30 ft 113 kts 58°
2026-05-06 18:27 39.55053 2.75138 118 ft 160 kts 59°
2026-05-06 18:27 39.55611 2.76396 787 ft 162 kts 60°
2026-05-06 18:27 39.56139 2.77721 1522 ft 165 kts 65°
2026-05-06 18:28 39.56499 2.78627 1882 ft 178 kts 63°
2026-05-06 18:28 39.57174 2.80145 2338 ft 200 kts 59°
2026-05-06 18:28 39.57999 2.81744 2843 ft 219 kts 57°
2026-05-06 18:28 39.58870 2.83386 3739 ft 220 kts 57°
2026-05-06 18:29 39.59673 2.84958 4574 ft 224 kts 58°
2026-05-06 18:29 39.60515 2.86668 5414 ft 227 kts 59°
2026-05-06 18:29 39.61361 2.88429 6260 ft 231 kts 59°
2026-05-06 18:29 39.62211 2.90221 7021 ft 237 kts 58°
2026-05-06 18:30 39.63215 2.91932 7673 ft 240 kts 39°
2026-05-06 18:30 39.64694 2.92884 7898 ft 240 kts
2026-05-06 18:30 39.66316 2.92762 7949 ft 238 kts 338°
2026-05-06 18:30 39.67658 2.91583 7949 ft 235 kts 307°
2026-05-06 18:31 39.68303 2.89651 8151 ft 238 kts 274°
2026-05-06 18:31 39.68105 2.87541 8904 ft 238 kts 258°
2026-05-06 18:31 39.67895 2.85326 9444 ft 257 kts 269°
2026-05-06 18:31 39.67984 2.82918 9880 ft 277 kts 276°
2026-05-06 18:32 39.68220 2.80350 10387 ft 292 kts 276°
2026-05-06 18:32 39.68424 2.77623 10686 ft 315 kts 273°
2026-05-06 18:32 39.68747 2.74725 11154 ft 330 kts 286°
2026-05-06 18:32 39.69633 2.71959 11965 ft 333 kts 292°
2026-05-06 18:33 39.70572 2.69203 12793 ft 336 kts 291°
2026-05-06 18:33 39.71515 2.66399 13581 ft 340 kts 291°
2026-05-06 18:33 39.72455 2.63592 14286 ft 343 kts 291°
2026-05-06 18:33 39.73420 2.60704 15071 ft 345 kts 291°
2026-05-06 18:34 39.74366 2.57874 15777 ft 347 kts 291°
2026-05-06 18:34 39.75329 2.54989 16496 ft 349 kts 291°
2026-05-06 18:34 39.76299 2.52082 17205 ft 352 kts 291°
2026-05-06 18:34 39.77296 2.49091 17929 ft 355 kts 291°
2026-05-06 18:35 39.78274 2.46154 18587 ft 356 kts 290°
2026-05-06 18:35 39.79264 2.43184 19211 ft 358 kts 290°
2026-05-06 18:35 39.80257 2.40197 19789 ft 361 kts 290°
2026-05-06 18:35 39.81255 2.37188 20378 ft 364 kts 290°
2026-05-06 18:36 39.82263 2.34149 20949 ft 367 kts 290°
2026-05-06 18:36 39.83276 2.31086 21514 ft 370 kts 290°
2026-05-06 18:36 39.84286 2.27986 22102 ft 372 kts 289°
2026-05-06 18:36 39.85281 2.24903 22633 ft 376 kts 289°
2026-05-06 18:37 39.86297 2.21753 23190 ft 378 kts 289°
2026-05-06 18:37 39.87319 2.18580 23684 ft 382 kts 289°
2026-05-06 18:37 39.88348 2.15392 23877 ft 382 kts 289°
2026-05-06 18:37 39.89376 2.12201 23933 ft 382 kts 289°
2026-05-06 18:38 39.90405 2.09019 23940 ft 382 kts 290°
2026-05-06 18:38 39.91455 2.05837 23941 ft 382 kts 290°
2026-05-06 18:38 39.92499 2.02652 23940 ft 382 kts 290°
2026-05-06 18:38 39.93535 1.99456 23941 ft 382 kts 290°
2026-05-06 18:39 39.94546 1.96306 23940 ft 382 kts 289°
2026-05-06 18:39 39.95569 1.93104 23942 ft 382 kts 289°
2026-05-06 18:39 39.96588 1.89904 24012 ft 385 kts 289°
2026-05-06 18:40 39.98657 1.83405 25052 ft 385 kts 289°
2026-05-06 18:40 39.99810 1.80276 25483 ft 392 kts 297°
2026-05-06 18:40 40.01557 1.77434 25937 ft 403 kts 311°
2026-05-06 18:40 40.03829 1.75194 26322 ft 418 kts 324°
2026-05-06 18:41 40.06529 1.73636 26697 ft 427 kts 332°
2026-05-06 18:41 40.09312 1.72227 27082 ft 430 kts 332°
2026-05-06 18:41 40.12151 1.70786 27481 ft 432 kts 332°
2026-05-06 18:41 40.14964 1.69349 27848 ft 435 kts 332°
2026-05-06 18:42 40.17786 1.67901 28212 ft 437 kts 332°
2026-05-06 18:42 40.20627 1.66440 28556 ft 440 kts 332°
2026-05-06 18:42 40.23478 1.64971 28900 ft 442 kts 332°
2026-05-06 18:42 40.26390 1.63468 29167 ft 447 kts 331°
2026-05-06 18:43 40.29298 1.61966 29471 ft 449 kts 331°
2026-05-06 18:43 40.32209 1.60462 29809 ft 451 kts 331°
2026-05-06 18:43 40.35138 1.58948 30104 ft 453 kts 331°
2026-05-06 18:43 40.38080 1.57426 30426 ft 454 kts 331°
2026-05-06 18:44 40.41027 1.55901 30743 ft 455 kts 331°
2026-05-06 18:44 40.43993 1.54364 31070 ft 456 kts 330°
2026-05-06 18:44 40.46940 1.52836 31492 ft 455 kts 330°
2026-05-06 18:44 40.49860 1.51322 31981 ft 451 kts 330°
2026-05-06 18:45 40.52771 1.49804 32406 ft 449 kts 329°
2026-05-06 18:45 40.55669 1.48287 32793 ft 447 kts 329°
2026-05-06 18:45 40.58553 1.46773 33178 ft 446 kts 329°
2026-05-06 18:45 40.60504 1.45750 33438 ft 445 kts 329°
2026-05-06 18:46 40.64380 1.43724 33930 ft 442 kts 329°
2026-05-06 18:46 40.67206 1.42247 34200 ft 442 kts 329°
2026-05-06 18:46 40.70068 1.40750 34434 ft 442 kts 329°
2026-05-06 18:46 40.72936 1.39249 34645 ft 443 kts 329°
2026-05-06 18:47 40.75802 1.37748 34859 ft 443 kts 330°
2026-05-06 18:47 40.78713 1.36223 35084 ft 443 kts 330°
2026-05-06 18:47 40.81594 1.34712 35276 ft 444 kts 330°
2026-05-06 18:47 40.84457 1.33210 35487 ft 444 kts 330°
2026-05-06 18:48 40.87330 1.31701 35688 ft 444 kts 330°
2026-05-06 18:48 40.90214 1.30184 35906 ft 444 kts 330°
2026-05-06 18:48 40.92987 1.28467 36043 ft 437 kts 321°
2026-05-06 18:48 40.95367 1.26064 36195 ft 425 kts 309°
2026-05-06 18:49 40.97431 1.23266 36351 ft 425 kts 309°
2026-05-06 18:49 40.99757 1.20799 36502 ft 436 kts 321°
2026-05-06 18:49 41.02509 1.19003 36646 ft 448 kts 334°
2026-05-06 18:49 41.05552 1.17964 36794 ft 457 kts 342°
2026-05-06 18:50 41.08655 1.17059 36950 ft 455 kts 339°
2026-05-06 18:50 41.11725 1.16063 37113 ft 455 kts 339°
2026-05-06 18:50 41.14839 1.15040 37315 ft 455 kts 340°
2026-05-06 18:50 41.17915 1.14044 37501 ft 454 kts 340°
2026-05-06 18:51 41.20989 1.13064 37684 ft 454 kts 340°
2026-05-06 18:51 41.24031 1.12103 37839 ft 454 kts 340°
2026-05-06 18:51 41.27097 1.11137 37934 ft 454 kts 341°
2026-05-06 18:52 41.33245 1.09202 37934 ft 454 kts 340°
2026-05-06 18:52 41.38350 1.07592 37939 ft 452 kts 341°
2026-05-06 18:53 41.44478 1.05655 37920 ft 452 kts 341°
2026-05-06 18:53 41.50599 1.03714 37921 ft 452 kts 341°
2026-05-06 18:54 41.56728 1.01766 37935 ft 452 kts 341°
2026-05-06 18:54 41.62849 0.99818 37925 ft 452 kts 341°
2026-05-06 18:55 41.68967 0.97867 37926 ft 452 kts 341°
2026-05-06 18:55 41.75091 0.95907 37931 ft 452 kts 341°
2026-05-06 18:56 41.81221 0.93942 37915 ft 452 kts 341°
2026-05-06 18:56 41.87316 0.91987 37910 ft 450 kts 341°
2026-05-06 18:57 41.93377 0.90039 37900 ft 450 kts 341°
2026-05-06 18:57 41.99471 0.88075 37910 ft 450 kts 341°
2026-05-06 18:58 42.05556 0.86113 37915 ft 448 kts 341°
2026-05-06 18:58 42.11623 0.84151 37922 ft 449 kts 341°
2026-05-06 18:59 42.17713 0.82177 37913 ft 450 kts 341°
2026-05-06 18:59 42.23757 0.80215 37927 ft 448 kts 341°
2026-05-06 19:00 42.29808 0.78248 37935 ft 448 kts 341°
2026-05-06 19:00 42.35876 0.76270 37934 ft 448 kts 341°
2026-05-06 19:01 42.41942 0.74289 37947 ft 449 kts 341°
2026-05-06 19:01 42.48033 0.72297 37952 ft 449 kts 341°
2026-05-06 19:02 42.54106 0.70307 37973 ft 449 kts 341°
2026-05-06 19:02 42.60180 0.68312 37970 ft 449 kts 341°
2026-05-06 19:03 42.66258 0.66309 37976 ft 449 kts 341°
2026-05-06 19:03 42.72299 0.64316 37994 ft 449 kts 341°
2026-05-06 19:04 42.78371 0.62309 38007 ft 449 kts 341°
2026-05-06 19:04 42.84440 0.60300 38001 ft 449 kts 341°
2026-05-06 19:05 42.90529 0.58282 38006 ft 448 kts 341°
2026-05-06 19:05 42.96561 0.56276 38009 ft 449 kts 341°
2026-05-06 19:06 43.02633 0.54252 38029 ft 449 kts 342°
2026-05-06 19:06 43.08717 0.52220 38007 ft 449 kts 342°
2026-05-06 19:07 43.14793 0.50187 37997 ft 449 kts 342°
2026-05-06 19:07 43.20865 0.48152 37993 ft 449 kts 342°
2026-05-06 19:08 43.26908 0.46120 37994 ft 450 kts 342°
2026-05-06 19:08 43.32947 0.44088 37994 ft 450 kts 342°
2026-05-06 19:09 43.39076 0.42021 37994 ft 450 kts 342°
2026-05-06 19:09 43.45173 0.39960 38005 ft 451 kts 342°
2026-05-06 19:10 43.51262 0.37898 38005 ft 450 kts 342°
2026-05-06 19:10 43.57322 0.35841 37999 ft 448 kts 342°
2026-05-06 19:11 43.63346 0.33792 38013 ft 449 kts 342°
2026-05-06 19:11 43.69393 0.31731 37994 ft 448 kts 342°
2026-05-06 19:12 43.75459 0.29661 37994 ft 448 kts 342°
2026-05-06 19:12 43.81519 0.27587 37997 ft 448 kts 342°
2026-05-06 19:13 43.87655 0.25481 37999 ft 448 kts 342°
2026-05-06 19:13 43.93803 0.23368 38002 ft 448 kts 342°
2026-05-06 19:14 43.99864 0.21281 37995 ft 448 kts 342°
2026-05-06 19:14 44.05962 0.19176 38000 ft 449 kts 343°
2026-05-06 19:15 44.12066 0.17065 38000 ft 449 kts 343°
2026-05-06 19:15 44.18132 0.14962 38002 ft 448 kts 343°
2026-05-06 19:16 44.24230 0.12844 37993 ft 448 kts 343°
2026-05-06 19:16 44.30317 0.10725 37991 ft 448 kts 343°
2026-05-06 19:17 44.36397 0.08604 37987 ft 447 kts 343°
2026-05-06 19:17 44.42357 0.06521 37996 ft 447 kts 343°
2026-05-06 19:18 44.48356 0.04420 37984 ft 447 kts 343°
2026-05-06 19:18 44.54389 0.02302 37978 ft 446 kts 343°
2026-05-06 19:19 44.60415 0.00181 37978 ft 446 kts 343°
2026-05-06 19:19 44.65424 -0.01585 37980 ft 446 kts 343°
2026-05-06 19:20 44.71440 -0.03704 37982 ft 445 kts 343°
2026-05-06 19:20 44.77439 -0.05828 37975 ft 445 kts 343°
2026-05-06 19:21 44.83453 -0.07966 37975 ft 445 kts 343°
2026-05-06 19:21 44.89435 -0.10081 37970 ft 445 kts 343°
2026-05-06 19:22 44.95439 -0.12209 37968 ft 445 kts 343°
2026-05-06 19:22 45.01445 -0.14353 37966 ft 445 kts 343°
2026-05-06 19:23 45.07445 -0.16503 37966 ft 445 kts 344°
2026-05-06 19:23 45.13444 -0.18648 37965 ft 445 kts 343°
2026-05-06 19:24 45.19444 -0.20804 37969 ft 445 kts 344°
2026-05-06 19:24 45.25440 -0.22968 37965 ft 445 kts 343°
2026-05-06 19:25 45.31448 -0.25140 37967 ft 445 kts 343°
2026-05-06 19:25 45.37463 -0.27323 37966 ft 445 kts 343°
2026-05-06 19:26 45.43428 -0.29499 37966 ft 445 kts 343°
2026-05-06 19:26 45.49481 -0.31704 37968 ft 445 kts 343°
2026-05-06 19:27 45.55531 -0.33910 37968 ft 445 kts 343°
2026-05-06 19:27 45.61530 -0.36100 37974 ft 445 kts 343°
2026-05-06 19:28 45.67541 -0.38298 37972 ft 445 kts 343°
2026-05-06 19:28 45.73431 -0.40456 37974 ft 445 kts 343°
2026-05-06 19:29 45.79485 -0.42679 37965 ft 445 kts 343°
2026-05-06 19:29 45.85474 -0.44883 37966 ft 445 kts 343°
2026-05-06 19:30 45.91467 -0.47093 37968 ft 445 kts 343°
2026-05-06 19:30 45.97465 -0.49310 37984 ft 445 kts 343°
2026-05-06 19:31 46.03455 -0.51529 37972 ft 445 kts 343°
2026-05-06 19:31 46.12441 -0.54868 37971 ft 444 kts 343°
2026-05-06 19:32 46.18395 -0.57087 37975 ft 445 kts 344°
2026-05-06 19:32 46.24389 -0.59324 37973 ft 445 kts 344°
2026-05-06 19:33 46.30379 -0.61564 37970 ft 444 kts 343°
2026-05-06 19:33 46.36369 -0.63809 37973 ft 444 kts 343°
2026-05-06 19:34 46.42367 -0.66013 37975 ft 445 kts 347°
2026-05-06 19:34 46.48514 -0.67199 37975 ft 446 kts 352°
2026-05-06 19:35 46.54667 -0.68237 37973 ft 446 kts 352°
2026-05-06 19:35 46.60871 -0.69320 37975 ft 446 kts 351°
2026-05-06 19:36 46.67035 -0.70397 37978 ft 446 kts 351°
2026-05-06 19:36 46.73252 -0.71448 37978 ft 446 kts 351°
2026-05-06 19:37 46.79477 -0.72493 37977 ft 446 kts 351°
2026-05-06 19:37 46.84652 -0.73364 37980 ft 446 kts 351°
2026-05-06 19:38 46.91872 -0.74584 37980 ft 446 kts 351°
2026-05-06 19:38 46.98095 -0.75639 37976 ft 447 kts 352°
2026-05-06 19:39 47.04328 -0.76699 37972 ft 447 kts 352°
2026-05-06 19:39 47.10503 -0.77753 37973 ft 447 kts 352°
2026-05-06 19:40 47.16720 -0.78816 37977 ft 447 kts 352°
2026-05-06 19:40 47.22906 -0.79877 37979 ft 447 kts 352°
2026-05-06 19:41 47.28404 -0.80822 37964 ft 447 kts 352°
2026-05-06 19:41 47.33588 -0.81714 37961 ft 447 kts 352°
2026-05-06 19:42 47.39762 -0.82780 37963 ft 447 kts 352°
2026-05-06 19:42 47.45922 -0.83847 37981 ft 444 kts 352°
2026-05-06 19:43 47.52012 -0.84903 37981 ft 445 kts 352°
2026-05-06 19:43 47.58119 -0.86382 37984 ft 444 kts 348°
2026-05-06 19:44 47.64206 -0.87985 37984 ft 444 kts 348°
2026-05-06 19:44 47.70288 -0.89587 37977 ft 444 kts 348°
2026-05-06 19:45 47.76380 -0.91205 37991 ft 444 kts 348°
2026-05-06 19:45 47.82468 -0.92828 37996 ft 445 kts 348°
2026-05-06 19:46 47.88558 -0.94454 37995 ft 445 kts 348°
2026-05-06 19:46 47.94652 -0.96085 37989 ft 445 kts 348°
2026-05-06 19:47 48.00698 -0.97707 37994 ft 445 kts 348°
2026-05-06 19:47 48.06804 -0.99349 37997 ft 445 kts 348°
2026-05-06 19:48 48.12888 -1.00989 37990 ft 445 kts 348°
2026-05-06 19:48 48.18986 -1.02637 37990 ft 445 kts 348°
2026-05-06 19:49 48.25069 -1.04285 38002 ft 445 kts 348°
2026-05-06 19:49 48.31167 -1.05941 37991 ft 445 kts 348°
2026-05-06 19:50 48.37221 -1.07589 38002 ft 445 kts 348°
2026-05-06 19:50 48.43318 -1.09253 38003 ft 445 kts 348°
2026-05-06 19:51 48.49409 -1.10919 38002 ft 445 kts 348°
2026-05-06 19:51 48.55507 -1.12592 38002 ft 445 kts 348°
2026-05-06 19:52 48.61603 -1.14268 37999 ft 445 kts 348°
2026-05-06 19:52 48.67693 -1.15947 37993 ft 445 kts 348°
2026-05-06 19:53 48.73750 -1.17620 37999 ft 445 kts 348°
2026-05-06 19:53 48.79847 -1.19309 37998 ft 445 kts 348°
2026-05-06 19:54 48.85948 -1.21004 38001 ft 445 kts 348°
2026-05-06 19:54 48.92054 -1.22703 38000 ft 445 kts 348°
2026-05-06 19:55 48.98155 -1.24406 38005 ft 446 kts 348°
2026-05-06 19:55 49.04258 -1.26114 38002 ft 446 kts 348°
2026-05-06 19:56 49.10410 -1.27839 38007 ft 446 kts 348°
2026-05-06 19:56 49.16523 -1.29558 38006 ft 446 kts 348°
2026-05-06 19:57 49.22610 -1.31274 38010 ft 446 kts 348°
2026-05-06 19:57 49.28725 -1.33002 38010 ft 446 kts 348°
2026-05-06 19:58 49.34837 -1.34734 38015 ft 446 kts 348°
2026-05-06 19:58 49.40987 -1.36481 38019 ft 446 kts 348°
2026-05-06 19:59 49.47051 -1.38208 38016 ft 446 kts 348°
2026-05-06 19:59 49.53153 -1.39949 38026 ft 446 kts 348°
2026-05-06 20:00 49.59303 -1.41268 38025 ft 447 kts 356°
2026-05-06 20:00 49.65508 -1.41048 38021 ft 448 kts
2026-05-06 20:01 49.71737 -1.40523 38020 ft 448 kts
2026-05-06 20:01 49.77964 -1.39996 38017 ft 448 kts
2026-05-06 20:02 49.84154 -1.39451 38013 ft 448 kts
2026-05-06 20:02 49.90376 -1.38898 38009 ft 448 kts
2026-05-06 20:03 49.96594 -1.38347 38011 ft 448 kts
2026-05-06 20:03 50.02783 -1.37346 38006 ft 449 kts
2026-05-06 20:04 50.08964 -1.35800 37995 ft 449 kts
2026-05-06 20:04 50.15092 -1.34295 37994 ft 449 kts
2026-05-06 20:05 50.21266 -1.32760 37998 ft 449 kts
2026-05-06 20:05 50.27443 -1.31216 37997 ft 449 kts
2026-05-06 20:06 50.33624 -1.29666 38001 ft 450 kts
2026-05-06 20:06 50.39802 -1.28113 37998 ft 450 kts
2026-05-06 20:07 50.45998 -1.26433 37995 ft 451 kts 12°
2026-05-06 20:07 50.51876 -1.23145 37989 ft 452 kts 27°
2026-05-06 20:08 50.57303 -1.18129 37965 ft 453 kts 33°
2026-05-06 20:08 50.62632 -1.12862 37990 ft 452 kts 32°
2026-05-06 20:09 50.67940 -1.07640 37980 ft 452 kts 32°
2026-05-06 20:09 50.73268 -1.02356 37983 ft 452 kts 32°
2026-05-06 20:10 50.78601 -0.97050 37989 ft 453 kts 31°
2026-05-06 20:10 50.84308 -0.92990 37971 ft 449 kts 12°
2026-05-06 20:11 50.87383 -0.92283 37976 ft 446 kts
2026-05-06 20:11 50.90471 -0.92524 37980 ft 444 kts 352°
2026-05-06 20:11 50.96603 -0.93927 37990 ft 446 kts 351°
2026-05-06 20:12 51.02756 -0.95325 38024 ft 447 kts 351°
2026-05-06 20:12 51.08931 -0.96623 38009 ft 446 kts 351°
2026-05-06 20:13 51.15073 -0.97902 38026 ft 446 kts 351°
2026-05-06 20:13 51.21221 -0.99180 38028 ft 446 kts 351°
2026-05-06 20:14 51.27386 -1.00451 38024 ft 446 kts 351°
2026-05-06 20:14 51.33540 -1.01720 38012 ft 446 kts 351°
2026-05-06 20:15 51.39660 -1.02984 38016 ft 446 kts 351°
2026-05-06 20:15 51.45809 -1.04256 38020 ft 446 kts 351°
2026-05-06 20:16 51.51967 -1.05538 38020 ft 446 kts 351°
2026-05-06 20:16 51.58117 -1.06820 38033 ft 446 kts 351°
2026-05-06 20:17 51.64283 -1.08105 38028 ft 446 kts 351°
2026-05-06 20:17 51.70386 -1.09381 38024 ft 445 kts 351°
2026-05-06 20:18 51.76536 -1.10668 37872 ft 446 kts 351°
2026-05-06 20:18 51.79602 -1.11311 37602 ft 444 kts 351°
2026-05-06 20:18 51.82669 -1.11954 37336 ft 443 kts 351°
2026-05-06 20:19 51.85690 -1.12589 37075 ft 443 kts 351°
2026-05-06 20:19 51.88747 -1.13232 36811 ft 443 kts 351°
2026-05-06 20:19 51.91802 -1.13877 36483 ft 444 kts 351°
2026-05-06 20:19 51.94877 -1.14527 35836 ft 446 kts 350°
2026-05-06 20:20 51.97963 -1.15181 35094 ft 449 kts 350°
2026-05-06 20:20 52.01055 -1.15836 34387 ft 449 kts 350°
2026-05-06 20:20 52.03149 -1.16280 33966 ft 448 kts 350°
2026-05-06 20:20 52.06228 -1.16934 33136 ft 449 kts 350°
2026-05-06 20:21 52.09341 -1.17595 32380 ft 448 kts 350°
2026-05-06 20:21 52.12399 -1.18246 31591 ft 448 kts 350°
2026-05-06 20:21 52.15520 -1.18911 30814 ft 447 kts 350°
2026-05-06 20:21 52.18594 -1.19567 30295 ft 441 kts 350°
2026-05-06 20:22 52.21628 -1.20215 29681 ft 436 kts 350°
2026-05-06 20:22 52.24613 -1.20853 29119 ft 430 kts 350°
2026-05-06 20:22 52.27520 -1.21477 28569 ft 424 kts 350°
2026-05-06 20:22 52.30433 -1.22104 28027 ft 419 kts 350°
2026-05-06 20:23 52.33305 -1.22722 27465 ft 414 kts 351°
2026-05-06 20:23 52.36154 -1.23335 26932 ft 409 kts 351°
2026-05-06 20:23 52.38959 -1.23939 26393 ft 405 kts 351°
2026-05-06 20:23 52.41735 -1.24539 25858 ft 401 kts 351°
2026-05-06 20:24 52.44494 -1.25135 25291 ft 397 kts 351°
2026-05-06 20:24 52.47216 -1.25724 24768 ft 394 kts 351°
2026-05-06 20:24 52.49909 -1.26308 24235 ft 391 kts 351°
2026-05-06 20:24 52.52600 -1.26892 23696 ft 388 kts 351°
2026-05-06 20:25 52.55276 -1.27473 23116 ft 385 kts 351°
2026-05-06 20:25 52.57953 -1.28055 22597 ft 380 kts 351°
2026-05-06 20:25 52.60557 -1.28622 22077 ft 375 kts 351°
2026-05-06 20:25 52.63127 -1.29181 21564 ft 371 kts 351°
2026-05-06 20:26 52.65673 -1.29737 21055 ft 368 kts 351°
2026-05-06 20:26 52.68195 -1.30390 20550 ft 363 kts 345°
2026-05-06 20:26 52.70584 -1.31636 20041 ft 358 kts 336°
2026-05-06 20:26 52.72823 -1.33525 19529 ft 354 kts 327°
2026-05-06 20:27 52.74910 -1.35686 19083 ft 352 kts 327°
2026-05-06 20:27 52.76993 -1.37811 18579 ft 351 kts 327°
2026-05-06 20:27 52.79065 -1.39916 18184 ft 352 kts 327°
2026-05-06 20:27 52.81210 -1.42101 18061 ft 367 kts 327°
2026-05-06 20:28 52.83351 -1.44288 17951 ft 366 kts 327°
2026-05-06 20:28 52.85516 -1.46503 17433 ft 368 kts 327°
2026-05-06 20:28 52.87727 -1.48773 16600 ft 372 kts 327°
2026-05-06 20:28 52.89910 -1.51015 15797 ft 375 kts 327°
2026-05-06 20:29 52.92123 -1.53288 15182 ft 371 kts 327°
2026-05-06 20:29 52.94309 -1.55536 14579 ft 368 kts 327°
2026-05-06 20:29 52.96474 -1.57768 13994 ft 364 kts 327°
2026-05-06 20:29 52.98614 -1.59976 13354 ft 361 kts 327°
2026-05-06 20:30 53.00745 -1.62178 12737 ft 358 kts 327°
2026-05-06 20:30 53.04803 -1.66570 12127 ft 335 kts 321°
2026-05-06 20:30 53.06592 -1.68941 11975 ft 329 kts 321°
2026-05-06 20:31 53.08210 -1.71567 11885 ft 325 kts 310°
2026-05-06 20:31 53.09595 -1.74462 11805 ft 314 kts 307°
2026-05-06 20:31 53.10891 -1.77268 11682 ft 302 kts 307°
2026-05-06 20:31 53.12170 -1.79954 11521 ft 291 kts 308°
2026-05-06 20:32 53.13442 -1.82533 11239 ft 285 kts 309°
2026-05-06 20:32 53.14736 -1.85097 10804 ft 284 kts 310°
2026-05-06 20:32 53.16012 -1.87595 10423 ft 282 kts 310°
2026-05-06 20:32 53.17281 -1.90068 10057 ft 279 kts 310°
2026-05-06 20:33 53.18559 -1.92559 9662 ft 277 kts 310°
2026-05-06 20:33 53.19803 -1.94986 9308 ft 277 kts 310°
2026-05-06 20:33 53.21069 -1.97460 8936 ft 277 kts 310°
2026-05-06 20:33 53.22299 -1.99914 8570 ft 274 kts 307°
2026-05-06 20:34 53.23333 -2.02545 8222 ft 270 kts 289°
2026-05-06 20:34 53.23521 -2.05673 7883 ft 270 kts 261°
2026-05-06 20:34 53.23195 -2.08741 7541 ft 268 kts 259°
2026-05-06 20:34 53.22844 -2.11840 7151 ft 267 kts 259°
2026-05-06 20:35 53.22499 -2.14854 6757 ft 266 kts 259°
2026-05-06 20:35 53.22146 -2.17899 6351 ft 265 kts 259°
2026-05-06 20:35 53.21787 -2.20979 5902 ft 263 kts 259°
2026-05-06 20:35 53.21455 -2.23895 5492 ft 255 kts 259°
2026-05-06 20:36 53.21129 -2.26856 5124 ft 246 kts 260°
2026-05-06 20:36 53.20829 -2.29555 4998 ft 228 kts 260°
2026-05-06 20:36 53.20561 -2.32008 4980 ft 214 kts 259°
2026-05-06 20:36 53.20279 -2.34569 4771 ft 218 kts 259°
2026-05-06 20:37 53.20017 -2.37014 4344 ft 217 kts 259°
2026-05-06 20:37 53.19769 -2.39550 3895 ft 221 kts 263°
2026-05-06 20:37 53.20006 -2.42045 3469 ft 223 kts 296°
2026-05-06 20:37 53.20936 -2.44146 3184 ft 225 kts 309°
2026-05-06 20:38 53.21629 -2.45500 3037 ft 229 kts 310°
2026-05-06 20:38 53.22667 -2.47540 2997 ft 228 kts 310°
2026-05-06 20:38 53.23962 -2.49154 2988 ft 223 kts 345°
2026-05-06 20:38 53.25360 -2.49152 2882 ft 205 kts 26°
2026-05-06 20:39 53.26357 -2.47606 2632 ft 191 kts 67°
2026-05-06 20:39 53.26863 -2.45592 2402 ft 189 kts 71°
2026-05-06 20:39 53.27377 -2.43583 2138 ft 188 kts 65°
2026-05-06 20:39 53.28070 -2.41714 1906 ft 180 kts 58°
2026-05-06 20:40 53.28792 -2.40134 1664 ft 180 kts 55°
2026-05-06 20:40 53.29584 -2.38500 1403 ft 174 kts 55°
2026-05-06 20:40 53.30295 -2.37034 1156 ft 152 kts 54°
2026-05-06 20:40 53.30921 -2.35743 949 ft 135 kts 55°
2026-05-06 20:41 53.31494 -2.34570 749 ft 125 kts 51°
2026-05-06 20:41 53.32072 -2.33433 598 ft 131 kts 52°
2026-05-06 20:41 53.32645 -2.32223 428 ft 129 kts 53°
2026-05-06 20:41 53.33193 -2.31070 282 ft 131 kts 50°
2026-05-06 20:42 53.33740 -2.29947 230 ft 102 kts 51°
2026-05-06 20:42 53.34059 -2.29286 230 ft 45 kts 51°
2026-05-06 20:42 53.34231 -2.28937 227 ft 39 kts 52°
2026-05-06 20:42 53.34419 -2.28624 226 ft 37 kts 32°
2026-05-06 20:43 53.34608 -2.28477 229 ft 21 kts 20°
2026-05-06 20:43 53.34681 -2.28423 230 ft 0 kts 28°
2026-05-06 20:43 53.34692 -2.28413 230 ft 4 kts 28°
2026-05-06 20:43 53.34735 -2.28350 229 ft 13 kts 45°
2026-05-06 20:44 53.34803 -2.28211 232 ft 17 kts 51°
2026-05-06 20:44 53.34886 -2.28038 228 ft 21 kts 50°
2026-05-06 20:44 53.34979 -2.27851 229 ft 22 kts 51°
2026-05-06 20:44 53.35078 -2.27642 235 ft 22 kts 52°
2026-05-06 20:45 53.35174 -2.27446 238 ft 18 kts 50°
2026-05-06 20:45 53.35252 -2.27279 238 ft 15 kts 52°
2026-05-06 20:45 53.35326 -2.27193 243 ft 9 kts 13°
2026-05-06 20:45 53.35345 -2.27190 244 ft 0 kts 353°
2026-05-06 20:46 53.35386 -2.27213 246 ft 14 kts 325°
2026-05-06 20:46 53.35478 -2.27326 248 ft 18 kts 321°
2026-05-06 20:47 53.35579 -2.27480 244 ft 22 kts 323°
2026-05-06 20:47 53.35709 -2.27629 247 ft 20 kts 337°
2026-05-06 20:47 53.35822 -2.27740 252 ft 16 kts 313°
2026-05-06 20:47 53.35852 -2.27749 253 ft 4 kts 28°
2026-05-06 20:48 53.35927 -2.27727 255 ft 18 kts 355°
2026-05-06 20:48 53.36065 -2.27855 255 ft 26 kts 321°
2026-05-06 20:48 53.36209 -2.28060 255 ft 25 kts 317°
2026-05-06 20:48 53.36335 -2.28268 255 ft 24 kts 316°
2026-05-06 20:49 53.36406 -2.28421 255 ft 11 kts 293°
2026-05-06 20:49 53.36442 -2.28524 255 ft 12 kts 313°
2026-05-06 20:49 53.36506 -2.28635 255 ft 15 kts 314°
2026-05-06 20:49 53.36567 -2.28744 255 ft 12 kts 306°
2026-05-06 20:50 53.36617 -2.28878 255 ft 15 kts 312°
2026-05-06 20:50 53.36700 -2.29010 255 ft 17 kts 316°
2026-05-06 20:50 53.36791 -2.29060 255 ft 15 kts 11°
2026-05-06 20:50 53.36882 -2.28963 255 ft 14 kts 45°
2026-05-06 20:51 53.36924 -2.28858 255 ft 10 kts 89°
2026-05-06 20:51 53.36900 -2.28804 255 ft 1 kts 132°
2026-05-06 20:51 53.36897 -2.28799 255 ft 1 kts 134°
2026-05-06 20:51 53.36891 -2.28789 255 ft 0 kts 134°